Regional Weather Roundup
Issued by NWS Raleigh/Durham, NC

Home | Current Version | Previous Version | Text Only | Print | Product List | Glossary On
Versions: 1 2 3 4 5 6 7 8 9 10 11 12 13 14 15 16 17 18 19 20 21 22 23 24 25 26 27 28 29 30 31 32 33 34 35 36 37 38 39 40 41 42 43 44 45 46 47 48 49 50
000
ASUS42 KRAH 010710
RWRRAH
NORTH CAROLINA WEATHER ROUNDUP
NATIONAL WEATHER SERVICE RALEIGH NC
300 AM EDT SAT AUG 01 2015

NOTE: "FAIR" INDICATES FEW OR NO CLOUDS BELOW 12,000 FEET WITH NO
SIGNIFICANT WEATHER AND/OR OBSTRUCTIONS TO VISIBILITY.

NCZ001-053-055-056-065-067-010800-
WESTERN NORTH CAROLINA

CITY           SKY/WX    TMP DP  RH WIND       PRES   REMARKS
ASHEVILLE      MOCLDY    68  57  68 N7        30.07F
JEFFERSON      CLEAR     67  50  53 NW3       30.11S
MORGANTON      PTCLDY    62  60  94 CALM      30.06S
HICKORY        PTCLDY    70  60  70 NW5       30.00F
RUTHERFORDTON  CLOUDY    72  57  60 CALM      30.00F
MOUNT AIRY     CLEAR     64  60  87 CALM      30.02F
BOONE          CLEAR     56  55  97 CALM      30.12F
$$

NCZ021-022-025-041-071-084-088-010800-
CENTRAL NORTH CAROLINA

CITY           SKY/WX    TMP DP  RH WIND       PRES   REMARKS
CHARLOTTE      CLEAR     70  61  73 NW7       29.97F
GREENSBORO     CLEAR     71  60  68 CALM      29.97F
WINSTON-SALEM  CLEAR     69  61  75 CALM      29.99F
RALEIGH-DURHAM PTCLDY    69  65  86 CALM      29.94S
FORT BRAGG     CLEAR     72  68  88 CALM      29.91F
FAYETTEVILLE   MOCLDY    75  72  90 N3        29.91F
BURLINGTON     CLEAR     67  61  81 W3        29.95F
LAURINBURG     MOCLDY    73  70  90 CALM      29.93F
$$

NCZ011-015-027-028-043-044-047-080-103-010800-
NORTHEASTERN NORTH CAROLINA

CITY           SKY/WX    TMP DP  RH WIND       PRES   REMARKS
ROCKY MT-WILSO MOCLDY    71  66  84 CALM      29.92F
GREENVILLE     CLEAR     72  72 100 CALM      29.93F
WASHINGTON     PTCLDY    73  72  96 CALM      29.91F
ELIZABETH CITY CLEAR     69  67  93 S5        29.91F
MANTEO         CLOUDY    75  67  75 CALM      29.92F
CAPE HATTERAS  MOCLDY    77  70  79 NE5       29.91F
$$

NCZ078-087-090-091-093-098-101-010800-
SOUTHEASTERN NORTH CAROLINA

CITY           SKY/WX    TMP DP  RH WIND       PRES   REMARKS
LUMBERTON      MOCLDY    75  71  87 CALM      29.92S
GOLDSBORO      CLEAR     75  72  92 W1        29.89F
KINSTON        CLEAR     73  72  95 CALM      29.91F
KENANSVILLE    PTCLDY   N/A N/A N/A CALM      29.92F
NEW BERN       PTCLDY    74  71  91 CALM      29.91F
CHERRY POINT   PTCLDY    75  73  93 W3        29.90F
BEAUFORT       MOCLDY    79  77  94 W3        29.90F
JACKSONVILLE   PTCLDY    75  72  90 CALM      29.89F
WILMINGTON     MOCLDY    76  75  97 CALM      29.91F
$$




USA.gov is the U.S. government's official web portal to all federal, state and local government web resources and services.